Weather History for KBWG - January, 2013

Change the Weather History Date:

Saturday, January 12, 2013

  Actual Average Record
Temperature  
Mean Temperature 65 °F 35 °F  
Max Temperature 70 °F 45 °F 73 °F (1916)
Min Temperature 60 °F 26 °F -26 °F (1886)
Degree Days  
Heating Degree Days 0 30  
Month to date heating degree days 266 355  
Since 1 July heating degree days 1691 1939  
Cooling Degree Days 0 0  
Month to date cooling degree days 0 0  
Year to date cooling degree days 0 0  
Growing Degree Days 15 (Base 50)    
Moisture  
Dew Point 62 °F    
Average Humidity 82    
Maximum Humidity 93    
Minimum Humidity 70    
Precipitation  
Precipitation 0.04 in 0.10 in 2.80 in (1913)
Month to date precipitation 1.33 1.38  
Year to date precipitation 1.33 1.38  
Snow  
Snow 0.00 in 0.10 in 5.00 in (1964)
Month to date snowfall 0.0 1.1  
Since 1 July snowfall T 2.3  
Snow Depth 0.00 in    
Sea Level Pressure  
Sea Level Pressure 29.97 in    
Wind  
Wind Speed 9 mph (South)    
Max Wind Speed 23 mph    
Max Gust Speed 31 mph    
Visibility 9 miles    
Events Rain    
T = Trace of Precipitation, MM = Missing Value Source: NWS Daily Summary

Daily Weather History Graph

Daily Weather History Graph

Search for Another Location

Airport or City:

Trip Planner

Search our weather history database for the weather conditions in past years. The results will help you decide how hot, cold, wet, or windy it might be!

Date:

Astronomy

Jan. 12, 2013 Rise Set
Actual Time 6:58 AM CST 4:49 PM CST
Civil Twilight 6:30 AM CST 5:18 PM CST
Nautical Twilight 5:58 AM CST 5:50 PM CST
Astronomical Twilight 5:26 AM CST 6:21 PM CST
Moon 7:19 AM CST (1/12) 6:15 PM CST (1/12)
Length of Visible Light 10h 48m
Length of Day
9h 51m
New Moon, 1% of the Moon is Illuminated
Jan 12
New Moon
Jan 18
First Quarter
Jan 26
Full
Feb 3
Last Quarter
Feb 10
New

Hourly Weather History & Observations

Time (CST) Temp. Dew Point Humidity Pressure Visibility Wind Dir Wind Speed Gust Speed Precip Events Conditions
12:53 AM 60.1 °F 57.0 °F 90% 29.99 in 10.0 mi SSW 4.6 mph - N/A   Mostly Cloudy
1:53 AM 63.0 °F 60.1 °F 90% 29.99 in 10.0 mi South 6.9 mph - N/A   Mostly Cloudy
2:53 AM 63.0 °F 60.1 °F 90% 29.99 in 10.0 mi South 8.1 mph - N/A   Mostly Cloudy
3:05 AM 62.6 °F 60.8 °F 94% 29.99 in 10.0 mi South 9.2 mph - N/A   Scattered Clouds
3:15 AM 64.4 °F 60.8 °F 88% 29.99 in 10.0 mi South 8.1 mph - N/A   Mostly Cloudy
3:53 AM 64.0 °F 61.0 °F 90% 29.97 in 10.0 mi South 6.9 mph - N/A   Overcast
4:40 AM 62.6 °F 60.8 °F 94% 29.98 in 10.0 mi South 5.8 mph - N/A   Mostly Cloudy
4:53 AM 64.0 °F 60.1 °F 87% 29.98 in 10.0 mi SSW 4.6 mph - N/A   Mostly Cloudy
5:00 AM 62.6 °F 60.8 °F 94% 29.99 in 10.0 mi South 6.9 mph - N/A   Mostly Cloudy
5:53 AM 63.0 °F 60.1 °F 90% 30.00 in 10.0 mi South 4.6 mph - N/A   Overcast
6:53 AM 63.0 °F 61.0 °F 93% 30.01 in 10.0 mi Calm Calm - N/A   Overcast
7:48 AM 62.6 °F 60.8 °F 94% 30.02 in 5.0 mi Calm Calm - 0.00 in Rain Light Rain
7:53 AM 64.0 °F 61.0 °F 90% 30.01 in 5.0 mi Calm Calm - 0.00 in Rain Light Rain
8:05 AM 64.4 °F 62.6 °F 94% 30.02 in 6.0 mi Calm Calm - 0.01 in   Overcast
8:09 AM 62.6 °F 60.8 °F 94% 30.03 in 5.0 mi Calm Calm - 0.01 in   Overcast
8:21 AM 62.6 °F 60.8 °F 94% 30.03 in 4.0 mi Calm Calm - 0.01 in   Overcast
8:53 AM 64.9 °F 63.0 °F 93% 30.02 in 10.0 mi South 4.6 mph - 0.01 in   Overcast
9:31 AM 66.2 °F 62.6 °F 88% 30.03 in 10.0 mi South 5.8 mph - N/A   Overcast
9:53 AM 66.9 °F 64.0 °F 90% 30.02 in 10.0 mi South 4.6 mph - N/A   Overcast
10:09 AM 66.2 °F 64.4 °F 94% 30.01 in 6.0 mi SSE 4.6 mph - 0.00 in Rain Light Rain
10:35 AM 66.2 °F 64.4 °F 94% 30.01 in 10.0 mi SSE 6.9 mph - 0.02 in   Overcast
10:53 AM 68.0 °F 64.9 °F 90% 29.99 in 10.0 mi South 4.6 mph - 0.02 in   Mostly Cloudy
11:05 AM 68.0 °F 64.4 °F 88% 30.00 in 10.0 mi South 5.8 mph - N/A   Overcast
11:53 AM 69.1 °F 64.9 °F 87% 29.98 in 10.0 mi South 11.5 mph - N/A   Overcast
12:15 PM 68.0 °F 64.4 °F 88% 29.98 in 10.0 mi South 10.4 mph - N/A   Overcast
12:26 PM 68.0 °F 64.4 °F 88% 29.97 in 10.0 mi South 9.2 mph - N/A   Mostly Cloudy
12:53 PM 68.0 °F 63.0 °F 84% 29.95 in 10.0 mi South 9.2 mph - 0.00 in Rain Light Rain
1:53 PM 66.9 °F 63.0 °F 87% 29.93 in 10.0 mi SSE 8.1 mph - 0.00 in Rain Light Rain
2:23 PM 66.2 °F 64.4 °F 94% 29.93 in 10.0 mi SSE 9.2 mph - 0.01 in   Overcast
2:53 PM 68.0 °F 64.0 °F 87% 29.92 in 10.0 mi South 8.1 mph - 0.01 in   Overcast
3:14 PM 68.0 °F 62.6 °F 83% 29.92 in 10.0 mi SSE 11.5 mph - 0.00 in Rain Light Rain
3:53 PM 68.0 °F 63.0 °F 84% 29.92 in 10.0 mi South 12.7 mph - 0.00 in   Overcast
4:53 PM 68.0 °F 62.1 °F 81% 29.91 in 10.0 mi South 10.4 mph - N/A   Overcast
5:53 PM 68.0 °F 63.0 °F 84% 29.89 in 10.0 mi South 11.5 mph - N/A   Scattered Clouds
7:53 PM 69.1 °F 62.1 °F 78% 29.88 in 10.0 mi South 12.7 mph - N/A   Overcast
8:53 PM 70.0 °F 61.0 °F 73% 29.86 in 10.0 mi South 13.8 mph 21.9 mph N/A   Overcast
9:53 PM 70.0 °F 60.1 °F 71% 29.83 in 10.0 mi South 16.1 mph - N/A   Overcast
10:53 PM 70.0 °F 59.0 °F 68% 29.83 in 10.0 mi South 23.0 mph 28.8 mph N/A   Partly Cloudy